GWACJ EGSF-EGTK

Flight info

Callsign GWACJ
Flight time N/A
Altitude 2500
Route VFR
Aircraft BE76/L-SDFGI/C

Departure

Time N/A
Airport Peterborough Business Airport (EGSF)

Arrival

Time 2026-04-29 09:07
Airport London Oxford Airport (EGTK)
Time Latitude Longitude Altitude Speed Heading
2026-04-29 09:01 51.69335 -1.30878 2469 ft 124 kts 355°
2026-04-29 09:01 51.70170 -1.31329 2445 ft 126 kts 359°
2026-04-29 09:01 51.70943 -1.31120 2430 ft 106 kts 43°
2026-04-29 09:02 51.71319 -1.30168 2473 ft 100 kts 66°
2026-04-29 09:02 51.71869 -1.29438 2435 ft 111 kts 31°
2026-04-29 09:02 51.72636 -1.29144 2466 ft 117 kts 17°
2026-04-29 09:02 51.73456 -1.29397 2472 ft 122 kts 357°
2026-04-29 09:03 51.74244 -1.29844 2436 ft 118 kts 355°
2026-04-29 09:03 51.75008 -1.30313 2326 ft 113 kts 354°
2026-04-29 09:03 51.75734 -1.30765 2117 ft 107 kts 355°
2026-04-29 09:03 51.76392 -1.31215 1970 ft 98 kts 353°
2026-04-29 09:04 51.77030 -1.31653 1778 ft 98 kts 352°
2026-04-29 09:04 51.77618 -1.32064 1625 ft 85 kts 348°
2026-04-29 09:04 51.78158 -1.32391 1463 ft 81 kts 352°
2026-04-29 09:04 51.78694 -1.32660 1315 ft 80 kts 354°
2026-04-29 09:05 51.79227 -1.32895 1191 ft 79 kts 356°
2026-04-29 09:05 51.79766 -1.33054 1082 ft 78 kts
2026-04-29 09:05 51.80293 -1.33079 1001 ft 74 kts 12°
2026-04-29 09:05 51.80772 -1.32978 942 ft 63 kts 19°
2026-04-29 09:06 51.81184 -1.32831 846 ft 60 kts 22°
2026-04-29 09:06 51.81599 -1.32661 734 ft 63 kts 23°
2026-04-29 09:06 51.82040 -1.32512 618 ft 65 kts 19°
2026-04-29 09:06 51.82465 -1.32383 478 ft 61 kts 19°
2026-04-29 09:07 51.82879 -1.32267 338 ft 60 kts 22°
2026-04-29 09:07 51.83274 -1.32137 277 ft 53 kts 21°
2026-04-29 09:07 51.83552 -1.32039 274 ft 23 kts
2026-04-29 09:07 51.83636 -1.32017 274 ft 7 kts 11°
2026-04-29 09:08 51.83662 -1.32015 274 ft 4 kts 238°
2026-04-29 09:08 51.83615 -1.32028 274 ft 12 kts 187°
2026-04-29 09:08 51.83457 -1.32072 274 ft 29 kts 190°
2026-04-29 09:08 51.83268 -1.32129 274 ft 26 kts 190°
2026-04-29 09:09 51.83095 -1.32181 274 ft 22 kts 191°
2026-04-29 09:09 51.82995 -1.32152 274 ft 9 kts 105°
2026-04-29 09:09 51.82987 -1.32082 274 ft 7 kts 94°
2026-04-29 09:09 51.82991 -1.31989 274 ft 10 kts 81°
2026-04-29 09:10 51.83002 -1.31864 274 ft 12 kts 83°
2026-04-29 09:10 51.83011 -1.31716 274 ft 14 kts 85°
2026-04-29 09:10 51.83029 -1.31560 274 ft 10 kts 57°
2026-04-29 09:10 51.83085 -1.31531 274 ft 11 kts 355°
2026-04-29 09:11 51.83132 -1.31483 274 ft 9 kts 63°
2026-04-29 09:11 51.83113 -1.31452 274 ft 2 kts 242°
2026-04-29 09:11 51.83102 -1.31458 274 ft 1 kts 100°